Glenwood, MN

10:23 PM CDT on August 27, 2016 (GMT -0500)
Glenwood Municipal

Weather History for KGHW - July, 2012

Change the Weather History Date:

Monday, July 30, 2012

  Actual Average Record
Temperature  
Mean Temperature 74 °F -  
Max Temperature 82 °F 82 °F 102 °F (2006)
Min Temperature 66 °F 58 °F 43 °F (1971)
Cooling Degree Days 9    
Growing Degree Days 24 (Base 50)    
Moisture  
Dew Point 61 °F    
Average Humidity 67    
Maximum Humidity 94    
Minimum Humidity 37    
Precipitation  
Precipitation 0.00 in - - ()
Sea Level Pressure  
Sea Level Pressure 29.95 in    
Wind  
Wind Speed 8 mph (WNW)    
Max Wind Speed 16 mph    
Max Gust Speed 21 mph    
Visibility 9 miles    
Events      
Averages and records for this station are not official NWS values.
T = Trace of Precipitation, MM = Missing Value Source: NWS Daily Summary

Daily Weather History Graph

Daily Weather History Graph

Search for Another Location

Airport or City:

Trip Planner

Search our weather history database for the weather conditions in past years. The results will help you decide how hot, cold, wet, or windy it might be!

Date:

Astronomy

Jul. 30, 2012 Rise Set
Actual Time 6:03 AM CDT 8:51 PM CDT
Civil Twilight 5:28 AM CDT 9:25 PM CDT
Nautical Twilight 4:44 AM CDT 10:09 PM CDT
Astronomical Twilight 3:53 AM CDT 11:00 PM CDT
Moon 6:55 PM CDT (7/30) 3:16 AM CDT (7/30)
Length of Visible Light 15h 57m
Length of Day
14h 48m
Waxing Gibbous, 92% of the Moon is Illuminated
Jul 30
Waxing Gibbous
Aug 1
Full
Aug 9
Last Quarter
Aug 17
New
Aug 24
First Quarter

Hourly Weather History & Observations

Time (CDT) Temp. Heat Index Dew Point Humidity Pressure Visibility Wind Dir Wind Speed Gust Speed Precip Events Conditions
12:14 AM 69.8 °F - 64.4 °F 83% 29.93 in 10.0 mi South 9.2 mph - N/A   Clear
12:34 AM 69.8 °F - 64.4 °F 83% 29.92 in 10.0 mi SSE 6.9 mph - N/A   Clear
12:54 AM 68.0 °F - 64.4 °F 88% 29.91 in 10.0 mi South 8.1 mph - N/A   Clear
1:34 AM 69.8 °F - 64.4 °F 83% 29.91 in 10.0 mi South 5.8 mph - N/A   Clear
1:54 AM 68.0 °F - 64.4 °F 88% 29.90 in 10.0 mi South 9.2 mph - N/A   Clear
2:14 AM 68.0 °F - 64.4 °F 88% 29.89 in 10.0 mi South 10.4 mph - N/A   Clear
2:34 AM 68.0 °F - 62.6 °F 83% 29.89 in 10.0 mi SSW 8.1 mph - N/A   Clear
2:54 AM 66.2 °F - 62.6 °F 88% 29.89 in 10.0 mi SSW 9.2 mph - N/A   Clear
3:14 AM 68.0 °F - 62.6 °F 83% 29.90 in 10.0 mi SSW 10.4 mph - N/A   Clear
3:34 AM 68.0 °F - 62.6 °F 83% 29.90 in 10.0 mi SSW 9.2 mph - N/A   Clear
3:54 AM 68.0 °F - 62.6 °F 83% 29.90 in 7.0 mi SSW 6.9 mph - N/A   Clear
4:14 AM 66.2 °F - 62.6 °F 88% 29.91 in 7.0 mi WSW 5.8 mph - N/A   Clear
4:34 AM 66.2 °F - 62.6 °F 88% 29.91 in 7.0 mi SSW 5.8 mph - N/A   Clear
4:54 AM 66.2 °F - 62.6 °F 88% 29.91 in 5.0 mi SSW 5.8 mph - N/A   Clear
5:14 AM 66.2 °F - 62.6 °F 88% 29.90 in 5.0 mi SSW 8.1 mph - N/A   Clear
5:34 AM 66.2 °F - 64.4 °F 94% 29.91 in 5.0 mi SW 8.1 mph - N/A   Clear
5:54 AM 66.2 °F - 64.4 °F 94% 29.91 in 7.0 mi SW 6.9 mph - N/A   Clear
6:14 AM 66.2 °F - 62.6 °F 88% 29.91 in 5.0 mi WSW 4.6 mph - N/A   Clear
6:34 AM 66.2 °F - 64.4 °F 94% 29.91 in 5.0 mi WSW 8.1 mph - N/A   Clear
6:54 AM 68.0 °F - 64.4 °F 88% 29.91 in 5.0 mi SW 4.6 mph - N/A   Clear
7:14 AM 68.0 °F - 64.4 °F 88% 29.92 in 5.0 mi WSW 6.9 mph - N/A   Clear
7:54 AM 71.6 °F - 62.6 °F 73% 29.92 in 10.0 mi West 8.1 mph - N/A   Clear
8:14 AM 71.6 °F - 64.4 °F 78% 29.92 in 10.0 mi West 8.1 mph - N/A   Clear
8:54 AM 73.4 °F - 64.4 °F 73% 29.93 in 10.0 mi WNW 10.4 mph - N/A   Clear
9:14 AM 75.2 °F - 62.6 °F 65% 29.93 in 10.0 mi NW 10.4 mph - N/A   Clear
9:34 AM 75.2 °F - 62.6 °F 65% 29.93 in 10.0 mi NW 9.2 mph - N/A   Clear
9:54 AM 75.2 °F - 62.6 °F 65% 29.94 in 10.0 mi NW 10.4 mph - N/A   Clear
10:14 AM 77.0 °F - 62.6 °F 61% 29.95 in 10.0 mi NW 8.1 mph - N/A   Clear
10:34 AM 78.8 °F - 62.6 °F 57% 29.95 in 10.0 mi WNW 9.2 mph - N/A   Clear
10:54 AM 78.8 °F - 60.8 °F 54% 29.95 in 10.0 mi NW 11.5 mph - N/A   Clear
11:14 AM 80.6 °F 81.5 °F 60.8 °F 51% 29.95 in 10.0 mi NW 10.4 mph - N/A   Clear
11:34 AM 80.6 °F 81.1 °F 59.0 °F 48% 29.96 in 10.0 mi NW 11.5 mph 16.1 mph N/A   Clear
11:54 AM 80.6 °F 80.8 °F 57.2 °F 45% 29.96 in 10.0 mi NNW 11.5 mph 16.1 mph N/A   Clear
12:14 PM 80.6 °F 81.5 °F 60.8 °F 51% 29.96 in 10.0 mi NNW 10.4 mph - N/A   Clear
12:34 PM 80.6 °F 81.1 °F 59.0 °F 48% 29.96 in 10.0 mi NW 10.4 mph 17.3 mph N/A   Clear
12:54 PM 80.6 °F 81.1 °F 59.0 °F 48% 29.96 in 10.0 mi NW 12.7 mph 16.1 mph N/A   Clear
1:14 PM 80.6 °F 81.5 °F 60.8 °F 51% 29.97 in 10.0 mi NW 9.2 mph - N/A   Clear
1:34 PM 82.4 °F 82.9 °F 60.8 °F 48% 29.97 in 10.0 mi NW 10.4 mph - N/A   Clear
1:54 PM 82.4 °F 81.4 °F 53.6 °F 37% 29.97 in 10.0 mi NW 13.8 mph 18.4 mph N/A   Clear
2:34 PM 82.4 °F 82.0 °F 57.2 °F 42% 29.97 in 10.0 mi WNW 16.1 mph 20.7 mph N/A   Clear
2:54 PM 82.4 °F 82.0 °F 57.2 °F 42% 29.97 in 10.0 mi NW 12.7 mph - N/A   Clear
3:14 PM 82.4 °F 82.0 °F 57.2 °F 42% 29.97 in 10.0 mi WNW 9.2 mph 18.4 mph N/A   Clear
3:34 PM 82.4 °F 82.0 °F 57.2 °F 42% 29.97 in 10.0 mi NW 13.8 mph 19.6 mph N/A   Clear
3:54 PM 82.4 °F 82.0 °F 57.2 °F 42% 29.97 in 10.0 mi WNW 13.8 mph 18.4 mph N/A   Clear
4:14 PM 82.4 °F 82.0 °F 57.2 °F 42% 29.97 in 10.0 mi NW 9.2 mph - N/A   Clear
4:34 PM 82.4 °F 82.5 °F 59.0 °F 45% 29.97 in 10.0 mi NW 11.5 mph 16.1 mph N/A   Clear
4:54 PM 82.4 °F 82.0 °F 57.2 °F 42% 29.96 in 10.0 mi NW 12.7 mph - N/A   Clear
5:34 PM 82.4 °F 82.0 °F 57.2 °F 42% 29.97 in 10.0 mi NW 10.4 mph - N/A   Clear
5:54 PM 82.4 °F 82.5 °F 59.0 °F 45% 29.97 in 10.0 mi NNW 10.4 mph - N/A   Scattered Clouds
6:14 PM 80.6 °F 81.1 °F 59.0 °F 48% 29.97 in 10.0 mi NNW 10.4 mph 18.4 mph N/A   Clear
6:34 PM 80.6 °F 80.8 °F 57.2 °F 45% 29.97 in 10.0 mi NNW 11.5 mph - N/A   Clear
6:54 PM 80.6 °F 80.8 °F 57.2 °F 45% 29.97 in 10.0 mi NNW 8.1 mph - N/A   Clear
7:14 PM 80.6 °F 81.1 °F 59.0 °F 48% 29.97 in 10.0 mi NNW 6.9 mph - N/A   Clear
7:34 PM 78.8 °F - 60.8 °F 54% 29.97 in 10.0 mi NNW 4.6 mph - N/A   Clear
7:54 PM 78.8 °F - 60.8 °F 54% 29.98 in 10.0 mi NW 3.5 mph - N/A   Clear
8:14 PM 77.0 °F - 60.8 °F 57% 29.98 in 10.0 mi NW 4.6 mph - N/A   Clear
8:34 PM 73.4 °F - 62.6 °F 69% 29.98 in 10.0 mi NW 4.6 mph - N/A   Clear
8:54 PM 73.4 °F - 62.6 °F 69% 29.98 in 7.0 mi WNW 3.5 mph - N/A   Clear
9:14 PM 71.6 °F - 62.6 °F 73% 29.99 in 10.0 mi Calm Calm - N/A   Clear
9:34 PM 71.6 °F - 62.6 °F 73% 29.99 in 10.0 mi WNW 3.5 mph - N/A   Clear
9:54 PM 71.6 °F - 62.6 °F 73% 30.00 in 10.0 mi WNW 3.5 mph - N/A   Clear
10:14 PM 69.8 °F - 62.6 °F 78% 30.00 in 10.0 mi WNW 4.6 mph - N/A   Clear
10:34 PM 69.8 °F - 62.6 °F 78% 30.00 in 10.0 mi WNW 3.5 mph - N/A   Clear
10:54 PM 69.8 °F - 62.6 °F 78% 30.01 in 10.0 mi Calm Calm - N/A   Clear
11:14 PM 69.8 °F - 62.6 °F 78% 30.01 in 10.0 mi Calm Calm - N/A   Clear
11:34 PM 68.0 °F - 62.6 °F 83% 30.01 in 10.0 mi West 4.6 mph - N/A   Clear
11:54 PM 68.0 °F - 62.6 °F 83% 30.02 in 10.0 mi West 5.8 mph - N/A   Clear